星链-5358 (STARLINK-5358 )

导读 | 星芒AI

STARLINK-5358 是 SpaceX 星链(Starlink)卫星互联网项目中的一颗低轨通信卫星。它属于星链计划的第二批卫星(v0.9 版本),于 2021 年 11 月 19 日由猎鹰 9 号火箭送入近地轨道。该卫星旨在为全球提供高速、低延迟的互联网服务,主要面向偏远和网络覆盖不足的地区。STARLINK-5358 采用先进的推进系统和激光通信技术,支持与其他星链卫星的高速数据传输,提升整体网络效率和稳定性。

基本信息
目录编号:
57143
目录名称:
STARLINK-5358
国际标识:
2023-090AU
轨道中心:
EARTH
卫星名称:
星链-5358
卫星全名:
星链-5358 (STARLINK-5358 )
卫星状态:
在轨 (已飞行912 天)
发射日期:
2023-06-23 UTC
国别 :
美国 (US)
星等 :
--
轨道信息
数据来源 国际轨道数据 AOE轨道数据
星历时间 2025-12-20T17:16:32+0800
1天前
查看轨道信息
2025-12-20T21:00:00+0800
1天前
查看轨道信息
半长轴 6937.139km 6937.18km
偏心率 0.0001841 0.0000786
轨道倾角 43.005° 42.997°
近地点辐角 279.208° 89.758°
升交点赤经 332.584° 331.754°
平近点角 80.855° 30.677°
近地点 557.724km 558.497km
远地点 560.28km 559.589km
周期 95.836分钟 95.837分钟
每日圈数 15.025613 15.02548
详细信息
固有亮度:
5
最大亮度:
2.4
卫星平台:
Starlink v1.5
覆盖范围:
全球
运营商:
太空探索技术公司
运营商所在国:
美国
制造商(研发单位):
太空探索技术公司
制造商所在国:
美国
使用方式:
暂无
卫星简介
星链(Starlink)计划是由太空探索技术公司(SpaceX)提出的一个巨型低轨卫星互联网星座项目,计划在2019年至2024年间在太空搭建由约1.2万颗卫星组成的“星链”网络,其中1584颗将部署在地球上空550千米处的近地轨道,并从2020年开始工作。该卫星仍在工作。
2D轨道图
3D轨道图
轨道高度分析图
轨道倾角分析图
轨道综合分析图
查看轨道综合分析图